Wind_Speed
8 6 17 14 10 8 8 8 6 5 4 5 5 5 5 6 6 7 7 7 7 7 6 6 6 6 7 6 5 5 5 5 6
9 6 13 11 9 8 6 7 5 3 2 3 4 4 5 5 5 6 6 6 7 6 6 6 5 5 5 4 3 3 3 3 3
7 7 11 12 3 2 5 7 5 4 2 1 4 5 4 5 5 5 7 6 7 5 5 5 5 5 3 2 1 0 1 1 3
2 3 5 6 8 9 9 11 9 7 4 3 5 7 7 6 6 5 6 7 8 8 3 4 4 5 4 3 3 3 3 3 3
6 7 7 8 10 10 9 10 10 8 6 4 6 8 9 8 7 8 8 8 7 8 9 7 6 6 5 4 4 4 4 4 3
11 10 10 10 10 9 9 10 9 9 7 7 7 7 9 11 10 10 10 9 8 7 6 6 5 6 5 5 5 5 4 4 5
11 11 11 10 10 9 9 10 9 8 9 9 9 9 9 10 12 12 12 11 10 10 10 9 8 8 7 6 5 6 7 8 8
11 11 11 9 9 9 9 9 8 8 9 10 11 11 11 11 11 12 12 12 11 11 11 10 9 8 7 8 8 9 10 9 8
11 10 11 10 8 9 9 9 9 8 9 10 11 10 10 11 12 14 16 15 13 11 13 12 11 11 11 10 10 10 10 10 8
9 9 10 9 9 8 9 9 10 10 11 12 12 11 11 11 12 13 16 19 17 12 10 15 13 12 12 11 11 10 10 9 9
10 10 10 10 10 9 9 10 11 13 12 12 13 12 12 12 13 13 16 19 20 20 15 14 13 12 11 11 10 11 11 10 9
10 10 10 10 10 11 10 11 11 11 11 11 12 12 13 12 13 13 15 17 20 22 22 20 18 13 11 10 11 11 13 12 12
10 10 10 11 12 11 11 10 11 11 11 12 12 12 13 13 13 13 14 17 18 20 20 21 20 20 13 14 13 13 13 15 15
12 12 12 12 12 12 12 12 13 12 12 12 14 14 14 14 14 14 15 16 18 19 21 22 22 23 24 19 15 15 15 15 16
14 14 14 15 15 15 15 14 13 15 16 15 14 15 15 16 16 16 16 16 17 18 21 22 24 25 26 29 28 24 16 17 19
18 18 18 18 18 19 19 18 18 18 19 18 17 16 17 18 17 17 18 18 19 19 20 22 24 25 26 28 30 31 31 29 22
22 22 22 22 23 23 23 23 23 22 22 22 21 20 19 20 20 20 21 21 21 22 23 23 24 26 26 27 28 29 31 31 29
27 27 27 27 27 28 28 28 27 27 26 27 26 26 25 23 23 23 24 25 25 25 25 25 24 26 27 28 29 30 31 31 31
29 29 31 31 31 31 32 32 32 31 30 31 30 31 31 32 30 27 28 28 28 28 28 27 27 27 27 29 30 31 32 32 33
26 26 28 30 33 34 34 35 35 36 35 35 34 34 34 37 38 36 33 32 32 31 31 30 30 31 31 30 31 32 33 33 33
Wind_Direction
65 171 152 149 84 77 78 68 59 62 103 133 143 150 151 138 147 157 161 164 153 149 147 136 134 135 134 130 112 86 67 58 58
17 74 133 130 45 63 35 24 20 12 21 144 152 154 150 147 149 160 161 160 154 157 156 155 152 156 154 144 116 75 51 41 32
41 80 75 149 118 111 338 316 313 318 313 168 192 172 169 162 173 170 164 162 146 151 164 170 172 173 175 172 186 314 13 350 351
178 163 173 173 242 277 302 303 298 293 285 238 206 196 185 181 183 184 172 164 152 185 189 179 200 203 203 227 255 278 297 313 326
253 253 249 250 257 271 275 274 284 283 275 255 221 210 205 202 192 190 195 197 192 195 199 213 227 228 232 236 253 265 280 293 302
251 259 265 266 269 273 279 278 275 271 263 248 237 215 215 215 210 206 203 198 188 195 202 195 202 233 229 250 263 271 279 286 294
248 253 258 264 266 267 264 260 261 257 253 239 229 222 218 220 217 212 208 213 211 211 208 219 225 239 247 251 264 280 286 292 295
253 255 255 257 258 256 247 244 245 246 246 240 236 223 218 223 220 221 210 214 220 221 226 227 232 236 241 251 264 273 283 287 289
249 261 268 266 253 244 240 237 237 231 236 239 240 234 223 222 224 218 213 212 215 224 231 234 238 245 254 263 270 275 279 277 282
250 250 258 265 263 258 255 245 245 240 238 238 236 237 235 235 232 226 224 217 217 220 230 233 243 254 258 266 268 272 277 275 274
267 262 253 239 236 238 250 253 245 247 246 244 243 240 240 238 236 230 226 222 222 221 226 226 233 244 258 258 263 273 273 275 276
264 265 265 262 253 245 235 239 251 250 248 247 247 246 243 240 238 230 229 230 230 232 238 240 233 227 248 257 260 276 274 272 272
265 266 264 265 265 265 262 259 253 254 256 255 252 253 251 249 245 239 233 236 238 239 238 240 238 231 219 240 258 272 279 269 267
259 260 262 261 266 268 271 273 277 273 266 260 263 265 266 264 261 256 251 247 243 245 244 242 242 237 230 226 230 248 266 273 270
261 264 268 271 274 276 278 276 273 276 277 273 268 268 268 267 263 260 257 254 255 249 250 249 246 244 240 238 238 241 245 258 271
265 267 268 271 273 274 275 276 276 274 273 273 270 271 272 272 270 266 263 261 259 257 252 248 249 250 247 245 245 246 248 249 255
261 262 262 264 266 268 270 272 272 272 273 274 271 268 268 266 270 270 270 269 265 262 259 256 251 249 249 248 248 248 249 249 250
260 260 260 260 261 263 265 267 268 269 272 272 272 270 264 260 263 263 262 262 262 262 261 260 258 256 256 256 254 252 249 248 246
261 260 260 261 261 261 262 264 266 266 265 268 269 270 270 267 257 255 261 261 260 261 262 262 262 260 257 256 256 255 252 249 247
270 267 264 262 262 263 263 265 267 268 267 267 266 268 269 270 271 263 255 259 262 262 262 263 262 262 259 256 253 253 253 251 250
Height
3168 3169 3167 3173 3174 3176 3177 3178 3180 3181 3181 3182 3183 3183 3184 3184 3185 3186 3187 3189 3190 3191 3192 3192 3194 3195 3195 3196 3197 3197 3198 3199 3199
3172 3172 3172 3176 3175 3175 3177 3179 3180 3182 3182 3182 3183 3184 3185 3185 3186 3187 3189 3190 3191 3192 3193 3194 3195 3196 3197 3197 3198 3198 3199 3200 3200
3173 3174 3174 3176 3178 3179 3178 3180 3180 3181 3182 3182 3183 3184 3185 3186 3187 3188 3189 3191 3192 3192 3193 3194 3195 3196 3197 3198 3199 3199 3199 3200 3200
3174 3175 3176 3177 3178 3178 3179 3178 3179 3180 3181 3182 3183 3184 3185 3186 3187 3188 3190 3191 3192 3192 3193 3194 3196 3196 3197 3198 3198 3199 3200 3199 3200
3172 3174 3175 3175 3176 3176 3177 3177 3177 3178 3179 3181 3182 3183 3184 3185 3187 3188 3189 3191 3192 3192 3193 3194 3196 3196 3197 3198 3198 3199 3200 3200 3200
3171 3172 3173 3173 3174 3175 3175 3175 3175 3176 3177 3179 3180 3181 3183 3184 3185 3187 3189 3190 3191 3192 3193 3194 3194 3195 3197 3198 3198 3199 3199 3200 3200
3169 3170 3170 3171 3172 3172 3173 3173 3173 3174 3176 3177 3178 3178 3181 3182 3184 3186 3187 3189 3190 3191 3192 3193 3194 3194 3196 3196 3197 3198 3199 3199 3199
3167 3168 3169 3169 3170 3170 3171 3171 3172 3173 3174 3175 3176 3177 3179 3181 3182 3184 3186 3187 3188 3189 3190 3192 3193 3194 3195 3195 3196 3196 3197 3197 3197
3164 3165 3166 3167 3168 3168 3169 3168 3170 3170 3172 3173 3174 3175 3177 3179 3179 3181 3183 3185 3186 3188 3189 3190 3191 3192 3193 3194 3194 3195 3195 3196 3196
3163 3163 3163 3164 3164 3165 3166 3166 3167 3168 3169 3171 3172 3173 3174 3176 3177 3178 3180 3182 3184 3185 3185 3187 3189 3190 3191 3192 3193 3193 3194 3194 3194
3161 3162 3162 3163 3163 3163 3164 3165 3166 3166 3167 3168 3168 3170 3171 3173 3175 3176 3177 3179 3180 3182 3183 3185 3187 3188 3189 3189 3190 3191 3192 3192 3192
3159 3159 3160 3161 3161 3161 3161 3162 3163 3163 3165 3166 3167 3168 3169 3170 3171 3173 3174 3176 3178 3179 3180 3182 3184 3185 3186 3187 3188 3189 3189 3190 3190
3156 3156 3157 3158 3159 3160 3160 3161 3161 3162 3162 3163 3164 3165 3166 3167 3168 3169 3171 3173 3174 3176 3177 3178 3180 3182 3183 3185 3185 3186 3186 3187 3187
3153 3154 3155 3155 3156 3157 3157 3158 3158 3159 3160 3161 3161 3162 3162 3163 3164 3166 3168 3169 3171 3171 3172 3173 3175 3177 3179 3180 3181 3182 3183 3183 3184
3149 3150 3150 3151 3151 3152 3153 3155 3156 3155 3156 3157 3159 3160 3161 3161 3162 3163 3164 3165 3166 3167 3168 3169 3170 3171 3173 3174 3175 3177 3178 3179 3180
3145 3146 3147 3147 3147 3148 3149 3150 3150 3151 3151 3153 3154 3155 3156 3155 3157 3158 3159 3160 3161 3161 3163 3164 3165 3166 3167 3169 3170 3172 3173 3174 3176
3141 3142 3142 3143 3143 3144 3144 3145 3146 3146 3147 3147 3148 3150 3151 3151 3152 3153 3154 3155 3155 3156 3157 3158 3159 3160 3160 3162 3163 3165 3166 3168 3170
3136 3137 3137 3138 3139 3139 3139 3139 3141 3142 3142 3141 3143 3143 3145 3146 3146 3148 3149 3149 3150 3151 3151 3152 3153 3154 3155 3155 3157 3158 3159 3161 3163
3130 3131 3131 3132 3133 3133 3134 3134 3134 3135 3137 3137 3137 3137 3137 3137 3141 3142 3142 3142 3143 3143 3144 3145 3146 3147 3148 3149 3150 3151 3152 3154 3155
3123 3124 3125 3125 3126 3126 3127 3127 3128 3128 3129 3129 3130 3130 3130 3128 3129 3132 3135 3136 3136 3137 3138 3139 3139 3139 3140 3141 3142 3142 3144 3145 3147